Hourly Data Report for October 11, 2015

All times are specified in Local Standard Time (LST). Add 1 hour to adjust for Daylight Saving Time where and when it is observed.

BATHURST A
NEW BRUNSWICK

47°37'47.000" N
65°44'20.000" W
58.80 m
8100505
71574
ZBF

Download Data

Hourly Data (October 2015)
Hourly Data Report for October 11, 2015
Temp Definition
°C
Dew Point Temp Definition
°C
Rel Hum Definition
%
Wind Dir Definition
10's deg

Wind Spd Definition
km/h
Visibility Definition
km
Stn Press Definition
kPa
Hmdx Definition


Wind Chill Definition


Weather Definition


TIME
00:00 Legend Double Dagger -0.9 -4.1 79 22 7 24.1 100.53   -3 LegendNANA
01:00 Legend Double Dagger -0.2 -3.9 76 21 8 24.1 100.49   -3 LegendNANA
02:00 Legend Double Dagger -0.1 -3.1 80 21 4 24.1 100.43   -1 Cloudy
03:00 Legend Double Dagger 0.2 -2.7 81 23 3 24.1 100.38     LegendNANA
04:00 Legend Double Dagger 0.9 -2.0 81 21 7 24.1 100.32     LegendNANA
05:00 Legend Double Dagger 1.7 -1.2 81 20 8 24.1 100.28     Cloudy
06:00 Legend Double Dagger 1.2 -1.2 84 17 5 24.1 100.22     LegendNANA
07:00 Legend Double Dagger 1.0 -1.1 86 18 5 24.1 100.17     LegendNANA
08:00 Legend Double Dagger 1.5 0.2 91 18 6 19.3 100.08     Rain
09:00 Legend Double Dagger 2.9 1.4 90 19 15 19.3 100.02     Rain
10:00 Legend Double Dagger 4.3 2.3 87 20 14 19.3 99.93     Rain
11:00 Legend Double Dagger 6.9 3.2 77 21 20 24.1 99.88     Mostly Cloudy
12:00 Legend Double Dagger 8.8 4.1 72 23 18 24.1 99.83     LegendNANA
13:00 Legend Double Dagger 7.8 3.9 76 22 13 24.1 99.81     LegendNANA
14:00 Legend Double Dagger 8.6 4.3 74 22 12 24.1 99.77     Cloudy
15:00 Legend Double Dagger 9.1 4.7 74 23 11 24.1 99.75     LegendNANA
16:00 Legend Double Dagger 9.4 5.0 74 22 13 24.1 99.74     LegendNANA
17:00 Legend Double Dagger 9.3 5.5 77 24 6 24.1 99.83     Cloudy
18:00 Legend Double Dagger 8.8 5.7 81 36 2 24.1 99.82     LegendNANA
19:00 Legend Double Dagger 8.0 6.2 88 36 2 24.1 99.84     LegendNANA
20:00 Legend Double Dagger 7.6 6.1 90 18 4 24.1 99.88     Cloudy
21:00 Legend Double Dagger 7.6 6.2 91 18 8 24.1 99.90     LegendNANA
22:00 Legend Double Dagger 7.3 6.1 92 24 5 24.1 99.90     LegendNANA
23:00 Legend Double Dagger 7.6 6.1 90 22 9 24.1 99.92     Cloudy

Notes on Data Quality.

Legend

  • E = Estimated
  • M = Missing
  • NA = Not Available
  • ‡ = Partner data that is not subject to review by the National Climate Archives
Date modified: